Regional Weather Roundup
Issued by NWS Wakefield, VA

Home | Current Version | Previous Version | Graphics & Text | Print | Product List | Glossary On
Versions: 1 2 3 4 5 6 7 8 9 10 11 12 13 14 15 16 17 18 19 20 21 22 23 24 25 26 27 28 29 30 31 32 33 34 35 36 37 38 39 40 41 42 43 44 45 46 47 48 49 50
000
ASUS41 KAKQ 120010
RWRAKQ

REGIONAL WEATHER ROUNDUP
NATIONAL WEATHER SERVICE WAKEFIELD VA
800 PM EDT FRI JUL 11 2014

Note: "fair" indicates few or no clouds below 12,000 feet with no
significant weather and/or obstructions to visibility. * = Denotes
station may not report precipitation (e.g., rain,snow,etc.),
thunder or fog.

VAZ042-051-052>054-056-120100-
NORTHERN VIRGINIA

CITY           SKY/WX    TMP DP  RH WIND       PRES   REMARKS
WASH NATIONAL  MOCLDY    83  64  52 SE5       30.17R
DULLES         PTCLDY    80  65  59 S6        30.17R
FORT BELVOIR   DRIZZLE   78  74  86 CALM      30.17S
QUANTICO       CLEAR     82  68  62 S6        30.17S
FREDERICKSBRG* CLEAR     83  69  61 SE3       30.16R
STAFFORD*      CLEAR     81  66  60 E3        30.21R
WARRENTON      CLEAR     81  74  81 CALM      30.17S
CULPEPER*      CLEAR    N/A N/A N/A CALM      30.17S
MANASSAS*      NOT AVBL
LEESBURG*      PTCLDY    82  70  65 S5        30.18S
WINCHESTER     CLEAR     79  63  57 SE3       30.18S
$$

VAZ048-049-060>072-079>083-120100-
CENTRAL AND SOUTH CENTRAL VIRGINIA...AND NORTH CENTRAL NORTH CAROLINA

CITY           SKY/WX    TMP DP  RH WIND       PRES   REMARKS
RICHMOND       PTCLDY    83  67  58 SE7       30.17R
CHESTERFIELD*  CLEAR     82  63  51 SE3       30.19R
HANOVER        CLEAR     79  70  74 CALM      30.18R
TAPPAHANNOCK*  CLEAR     82  63  52 CALM      30.18R
CHARLOTTSVILLE CLEAR     81  67  62 E5        30.18S
ORANGE*        CLEAR     81  68  65 CALM      30.19S
LOUISA*        CLEAR     77  70  78 CALM      30.17S
FARMVILLE*     CLEAR     79  66  65 CALM      30.16R
SOUTH HILL*    CLEAR     81  70  69 CALM      30.23S
ROANOKE RAPIDS CLEAR     81  72  74 CALM      30.17S
RALEIGH        PTCLDY    81  67  62 E6        30.18R
$$

VAZ088>098-120100-
SOUTHEAST VIRGINIA

CITY           SKY/WX    TMP DP  RH WIND       PRES   REMARKS
NORFOLK        MOCLDY    76  68  76 E5        30.18R
VIRGINIA BEACH CLOUDY    75  69  81 E6        30.17R
NORFOLK NAVAL  MOCLDY    76  69  79 E9        30.19R
WEST POINT*    CLEAR     81  66  61 E5        30.19R
NEWPORT NEWS   PTCLDY    80  70  71 E8        30.18R
LANGLEY AFB    MOCLDY    76  72  87 SE8       30.18R
FORT EUSTIS    NOT AVBL
WILLIAMSBURG*  PTCLDY    79  73  83 E3        30.19R
FRANKLIN*      PTCLDY    79  72  78 E5        30.17S
WAKEFIELD      PTCLDY    79  72  79 CALM      30.18R HAZE
$$

VAZ020-022-025-037-045-120100-
WESTERN AND SOUTHWEST VIRGINIA

CITY           SKY/WX    TMP DP  RH WIND       PRES   REMARKS
STAUNTON*      PTCLDY    76  63  62 E3        30.22S
HOT SPRINGS VA CLEAR     67  58  71 S6        30.34R
LYNCHBURG      CLEAR     80  67  64 SE5       30.20R
DANVILLE       CLEAR     82  67  60 CALM      30.18R
MARTINSVILLE   CLEAR     81  68  65 CALM      30.21S
ROANOKE        CLEAR     80  65  59 SE8       30.21R
BLACKSBURG     CLEAR     77  66  69 SE7       30.27R
DUBLIN*        CLOUDY    78  64  61 E7        30.25R
MARION*        PTCLDY    78  66  67 E5        30.27R
HILLSVILLE*    CLEAR     73  63  69 S3        30.27S
RICHLANDS*     CLEAR     81  61  50 NE5       30.25R
WISE*          CLEAR     77  57  50 NE5       30.26R
ABINGDON*      CLEAR     83  62  50 CALM      30.22R
$$

MDZ021>025-VAZ099-100-120100-
SOUTHERN MARYLAND AND THE DELMARVA PENINSULA

CITY           SKY/WX    TMP DP  RH WIND       PRES   REMARKS
PATUXENT RIVER PTCLDY    78  69  73 E3        30.17R
BAY BRIDGE APT   N/A     81  68  65 SE3       30.17S
LEONARDTOWN    MOCLDY    77  68  73 CALM      30.19S
DOVER          CLEAR     75  68  79 SE7       30.17S
GEORGETOWN     CLEAR     75  67  76 SE10      30.19S
EASTON         CLEAR     81  72  74 CALM      30.21S
CAMBRIDGE      PTCLDY    79  72  78 CALM      30.17S
SALISBURY      CLEAR     77  68  73 E3        30.18R
OCEAN CITY     PTCLDY    74  69  85 E5        30.18S
WALLOPS ISLAND PTCLDY    76  69  79 E8        30.18S
ACCOMACK*        N/A     73  64  73 CALM      30.18R
$$

NCZ012>017-030>032-120100-
EASTERN NORTH CAROLINA

CITY           SKY/WX    TMP DP  RH WIND       PRES   REMARKS
ELIZABETH CITY CLOUDY    76  69  79 NE7       30.18R
AHOSKIE*       CLEAR     75  71  85 CALM      30.18R
EDENTON*       CLOUDY    78  73  84 E7        30.17R
CURRITUCK*     CLOUDY    76  69  79 NE5       30.19R
KILL DEVIL HLS CLOUDY    75  71  89 CALM      30.17R
MANTEO         NOT AVBL
CAPE HATTERAS  MOCLDY    79  72  79 W5        30.16R
GOLDSBORO      PTCLDY    79  75  89 NE3       30.15S
WASHINGTON     CLOUDY   N/A N/A N/A CALM      30.17S
GREENVILLE     PTCLDY    79  72  78 N3        30.18S HAZE
NEW BERN       CLOUDY    81  73  78 CALM      30.17S
WILMINGTON     CLOUDY    80  74  81 E5        30.16R
$$

VAZ048-120100-
ELSEWHERE

CITY           SKY/WX    TMP DP  RH WIND       PRES   REMARKS
HARRISBURG PA  PTCLDY    81  67  62 SW3       30.16R
BALTIMORE      PTCLDY    81  64  56 S3        30.16S
ANNAPOLIS      CLEAR     80  66  62 S6        30.16S
ANDREWS AFB    CLEAR     79  67  66 E5        30.18R
WILMINGTON DE  CLEAR     78  69  73 S14       30.18R
PHILADELPHIA   MOCLDY    81  62  52 S8        30.18R
WILDWOOD NJ*   CLEAR     73  64  73 E6        30.20S
ATLANTIC CITY  CLEAR     72  63  73 SE5       30.19S
HENDERSON NC   CLEAR     81  64  57 CALM      30.19R
GREENSBORO     PTCLDY    82  65  56 E7        30.18R
ROCKY MOUNT    PTCLDY    78  71  79 CALM      30.17S
FAYETTEVILLE   CLEAR     81  70  69 E3        30.16R
CHARLOTTE      PTCLDY    84  63  49 E8        30.17R
$$

VAZ100-120100-
MARINE

STATION/POSITION TIME  TEMP    WIND        PRES    WAVE   SWELL
                       AIR SEA DIR/SP/G            HT/PER HT/PER
                 (UTC) (F)     (DEG/KT/KT) (MB)    (FT/S) (FT/S)
44066 TX TWR #4  0000   69 71   60/  6/  8 1022.0R   2/ 7   2/ 7
CAPE MAY NJ      0000   72 74  120/  5/  5 1022.1S
LEWES DE         0000   72 74  130/  4/  5 1021.6S
15NM E FENWICK I 0000   73 74              1021.9S   2/ 6
OCEAN-CITY-INLET 0000   73 69   70/  5/  6 1021.8S
WACHAPREAGUE VA  0000   73 79   60/  7/  9 1022.0R
THOMAS POINT MD  0000   80 81  160/  6/  6 1022.0R
GOOSES REEF MD   0000   81     110/  6/  6 1022.3R
COVE POINT MD    0000   79      60/  9/ 10 1021.5S
SOLOMONS ISLAND  0000      80                N/A
BISHOPS HEAD MD  0000   79 83  200/  5/  5 1021.7R
PINEY POINT MD   0000          170/  5/  6   N/A
POTOMAC MD       0000   80     150/  6/  8 1020.9S
CAMBRIDGE MD     0000   79 80  120/  7/  9 1021.4R
LEWISETTA VA     0000   80 82  110/  6/  7 1021.4S
RAPPAHANNOCK LGT 0000          100/  5/  7 1022.3R
STINGRAY PT      0000   78     130/  4/  6 1020.9S
YORK RVR RNG VA  0000   76     130/  8/  9 1021.4R
YORKTOWN VA      0000   78 80  120/  7/  9 1021.7R
JAMESTOWN VA     0000   79     120/  6/  8   N/A
DOMINION TERM VA 0000   76      70/  7/  9 1022.0R
KIPTOPEKE VA     0000      80  100/  6/  9   N/A
CHES BAY BRIDGE  0000   74 77   80/  6/  8 1021.4S
CAPE HENRY VA    0000   74      90/  5/  6 1020.8R
WILLOUBY STN VA  0000   80     100/  9/ 11 1021.2S
S CRANEY ISL VA  0000           60/  6/  7 1021.8F
CAPE HENRY BUOY  0000      76                N/A     2/ 6
1ST LANDING BUOY 0000   74      90/  6/  6 1021.5R
CAPE CHARLES BUO 0000      75                N/A     2/ 6
OFFSHORE WE BUOY 0000      75                N/A     2/ 6
64NM E OF VA BCH 0000   74 76  360/  6/  6 1020.9R   2/ 6   2/ 6
DUCK PIER NC     0000   74 61   50/  7/  8 1021.2R
44056 DUCK FRF   0000                        N/A     2/ 6
OREGON INLET NC  0000   75 82   30/  7/  8 1021.4S
HATTERAS NC      0000   79 83  230/  5/  7 1021.5R
DIAMOND SHLS NC  0000          VRB  8/  8  1021.0R   2/ 6   2/ 6
CAPE LOOKOUT NC  2300   79     210/  3/  5 1020.9R
$$


USA.gov is the U.S. government's official web portal to all federal, state and local government web resources and services.